Temp
60 50 45 52 56 58 57 54 51 57 63 59 57 59 63 69 70 72 75 76 77 79 84 83 86 85 79 75 76 76 74 75 75 72 71 71 72 71 72 73 76 75 76 76
53 46 57 63 61 57 55 51 49 56 62 59 56 56 62 65 67 69 70 75 76 77 76 79 84 80 77 76 74 73 75 74 74 72 71 72 71 71 73 73 75 76 75 75
47 54 63 60 56 54 52 50 50 50 57 59 55 51 56 64 67 70 72 71 72 75 78 80 81 77 76 73 72 73 73 75 73 74 70 69 68 69 71 71 74 73 75 75
51 59 59 56 54 55 44 56 55 52 47 39 53 38 51 57 60 64 68 70 69 71 72 77 77 75 75 75 78 76 73 73 73 72 69 70 75 68 69 71 72 71 74 73
49 53 53 52 53 55 48 56 52 51 46 44 46 40 48 54 55 59 63 69 71 71 71 72 73 75 75 75 74 73 72 73 74 75 76 73 68 68 70 69 70 70 70 72
54 63 57 53 57 56 56 50 49 46 41 33 43 42 43 49 55 60 65 68 71 74 76 75 76 75 73 75 74 72 72 74 75 73 71 71 68 69 68 68 68 67 67 68
52 53 56 58 48 53 48 39 27 25 26 29 46 43 45 55 60 62 62 64 69 72 74 76 78 78 76 73 74 73 70 70 70 71 72 72 69 69 69 68 68 67 66 66
33 33 52 56 49 44 43 40 31 21 25 31 45 37 44 57 60 57 57 63 67 70 73 71 72 81 82 81 81 73 71 71 68 71 71 71 70 71 70 70 68 67 67 67
37 39 56 59 59 55 43 39 47 37 36 31 35 43 52 53 52 53 53 56 55 55 65 74 72 70 71 71 72 73 70 69 70 69 68 68 69 70 69 68 69 68 68 69
45 35 51 55 56 54 48 50 35 32 26 25 35 38 38 43 45 49 49 52 53 55 61 70 72 72 72 71 72 70 70 70 69 69 69 70 70 71 72 70 68 68 69 70
46 39 41 48 44 42 45 39 40 34 32 26 26 32 45 43 47 46 49 53 54 56 57 66 69 70 70 70 71 69 70 70 70 71 70 70 71 72 72 70 70 70 70 70
43 37 32 39 50 54 47 38 34 30 28 33 30 31 50 47 48 48 51 54 55 57 57 58 67 69 70 70 69 71 70 73 72 72 71 71 71 72 70 70 70 70 70 70
42 34 28 34 41 43 39 44 45 41 38 33 28 31 51 49 50 52 50 52 54 56 58 62 65 66 69 69 72 71 74 73 72 72 70 70 69 70 70 68 70 72 70 71
49 36 32 27 35 40 37 43 46 40 30 36 37 42 49 47 49 50 50 52 52 55 60 61 61 60 66 70 72 74 70 72 73 73 71 70 70 69 68 66 66 68 71 69
41 33 37 41 44 45 44 44 46 43 44 38 43 44 45 48 49 52 52 53 58 57 60 63 63 62 64 67 71 72 70 73 73 73 71 70 69 69 67 66 67 68 68 68
41 35 38 34 42 45 42 46 48 48 47 45 44 44 53 57 55 55 56 56 61 63 65 67 68 67 66 68 72 71 71 73 74 73 72 72 70 70 66 67 66 66 66 68
40 36 33 30 42 41 34 45 46 47 48 45 38 46 53 52 55 56 58 59 64 65 68 67 66 69 65 66 67 70 70 74 73 73 73 72 71 69 67 66 67 65 66 67
36 36 34 29 33 25 43 46 46 42 45 46 45 47 51 53 56 60 62 60 60 62 66 62 63 64 60 63 67 70 74 75 73 73 73 73 71 69 67 67 68 66 66 62
41 37 32 28 24 36 43 41 40 37 37 46 43 45 47 50 51 54 56 57 57 60 62 62 63 61 59 59 68 71 74 74 74 73 73 72 71 68 69 68 67 65 62 62
41 41 34 30 26 24 36 42 47 44 32 45 43 42 44 45 38 44 53 56 58 61 63 62 63 62 60 61 67 74 73 73 73 74 73 74 74 70 69 68 66 62 62 62
35 34 31 32 29 33 42 44 46 30 32 43 45 45 45 41 44 48 52 54 58 62 62 63 62 61 62 64 70 72 72 71 74 75 73 72 72 69 68 67 62 62 62 62
34 32 29 30 30 26 44 43 35 40 44 45 46 46 45 47 49 51 52 53 56 58 63 63 61 61 63 66 75 69 68 75 74 74 73 72 71 73 68 64 62 62 62 61
29 36 33 34 32 46 45 43 46 45 44 45 46 47 47 47 48 48 48 52 55 57 61 62 60 61 63 68 75 70 73 74 72 71 69 70 69 69 66 63 61 61 61 61
43 47 39 38 41 43 45 47 46 46 44 45 45 46 47 45 47 49 51 53 55 58 62 61 61 61 62 67 74 75 76 73 71 69 69 69 69 68 63 63 62 61 61 61
42 45 40 39 43 43 46 45 45 45 47 46 47 47 47 48 51 53 55 56 57 60 62 61 61 60 63 73 74 77 75 73 70 71 69 67 69 62 57 53 53 60 58 59
44 42 38 37 43 40 42 44 46 43 44 45 45 46 50 51 51 54 56 60 60 61 62 61 61 61 64 75 76 74 74 73 72 68 70 69 66 61 57 57 54 42 44 45
MSLP
1006.91 1007.27 1007.74 1007.42 1007.14 1007.01 1006.73 1006.23 1005.65 1004.76 1004.49 1004.16 1003.81 1002.11 1001.55 1001.35 1000.43 999.90 999.02 998.82 998.67 998.43 998.08 997.70 997.85 997.93 998.17 998.53 998.75 999.23 999.97 1000.50 1000.91 1001.64 1002.14 1002.58 1002.94 1003.12 1003.20 1003.30 1003.33 1003.52 1003.82 1004.18
1007.42 1007.25 1007.08 1006.91 1006.71 1006.71 1006.64 1006.34 1005.87 1005.20 1005.07 1004.73 1004.08 1002.51 1001.70 1001.39 1000.73 1000.22 999.66 998.74 998.01 997.83 997.45 997.22 997.22 997.51 997.75 998.17 998.35 998.64 999.03 999.65 1000.11 1000.73 1001.23 1001.79 1002.37 1002.45 1002.49 1002.65 1002.64 1002.74 1003.09 1003.65
1007.84 1007.33 1006.75 1006.76 1006.84 1006.90 1006.86 1006.81 1006.53 1006.03 1005.52 1004.88 1004.69 1003.33 1001.72 1000.77 1000.51 999.97 999.19 998.77 998.06 997.63 997.36 997.01 997.00 997.07 997.30 997.52 998.02 998.21 998.39 998.70 999.31 999.96 1000.77 1001.39 1001.89 1002.05 1002.37 1002.38 1002.39 1002.21 1002.46 1003.08
1007.69 1007.11 1006.86 1006.81 1007.01 1007.13 1007.26 1007.32 1007.16 1006.86 1006.72 1006.01 1005.54 1003.25 1002.55 1001.56 1000.37 1000.02 999.13 998.62 998.14 997.58 997.16 996.97 996.73 996.58 996.73 997.01 996.84 997.35 997.94 998.40 998.90 999.34 1000.04 1000.62 1001.04 1001.88 1001.77 1001.90 1002.00 1001.95 1002.13 1002.73
1007.81 1007.12 1006.75 1006.84 1007.40 1007.73 1007.82 1007.87 1007.85 1007.59 1007.30 1007.02 1006.24 1005.12 1002.08 1002.04 1000.93 1000.20 999.47 998.61 997.87 997.29 996.85 996.43 996.47 996.06 995.94 996.41 996.85 997.10 997.52 998.04 998.41 998.74 999.19 999.85 1000.48 1000.82 1001.21 1001.49 1001.67 1001.90 1002.24 1002.60
1007.34 1006.56 1006.81 1007.34 1007.66 1007.99 1008.21 1008.34 1008.02 1008.13 1008.19 1007.25 1006.18 1006.05 1002.67 1002.55 1001.45 1000.28 999.71 998.73 997.68 996.91 996.12 995.72 995.36 995.19 995.37 995.54 996.01 996.61 997.13 997.43 997.66 998.03 998.52 998.99 999.71 1000.44 1001.16 1001.42 1001.63 1001.99 1002.51 1002.77
1007.11 1007.03 1007.29 1007.48 1007.96 1008.04 1008.39 1008.98 1009.53 1009.24 1008.74 1007.29 1006.41 1005.57 1003.08 1001.81 1001.19 1000.47 999.96 999.16 997.98 997.19 996.35 995.52 994.69 994.64 994.62 994.94 995.32 995.67 996.21 996.69 996.87 997.35 997.89 998.36 999.00 999.86 1000.53 1001.09 1001.52 1002.06 1002.56 1002.95
1007.79 1007.82 1007.52 1007.59 1007.88 1007.95 1008.34 1009.54 1010.47 1010.13 1009.19 1007.86 1006.87 1004.97 1002.45 1001.70 1000.99 1001.68 1001.15 1000.02 998.69 997.47 996.66 995.90 994.52 993.74 993.59 993.90 994.30 994.79 995.24 995.72 996.17 996.66 997.19 997.66 998.33 999.25 999.83 1000.42 1001.09 1001.56 1002.04 1002.55
1008.51 1008.10 1007.90 1007.42 1007.39 1007.86 1008.21 1008.86 1008.88 1009.83 1009.99 1008.86 1007.12 1004.37 1002.88 1003.04 1002.62 1002.28 1001.93 1001.03 1000.17 999.09 997.50 995.03 993.72 993.30 993.22 993.31 993.52 993.70 994.22 994.80 995.26 995.85 996.54 997.27 998.03 998.80 999.38 1000.01 1000.63 1001.07 1001.68 1002.23
1009.28 1008.54 1008.50 1007.89 1007.91 1007.51 1007.86 1008.05 1008.90 1009.74 1010.02 1009.09 1006.86 1005.46 1004.60 1004.25 1003.70 1002.81 1002.28 1002.03 1000.82 999.25 997.01 994.79 993.23 992.92 992.62 992.62 992.83 993.07 993.38 994.06 994.71 995.41 996.19 997.06 997.74 998.35 998.97 999.65 1000.27 1000.91 1001.44 1001.88
1009.82 1009.86 1009.09 1008.88 1008.40 1007.88 1007.81 1008.42 1009.69 1011.12 1010.31 1009.53 1007.98 1006.08 1005.44 1005.20 1004.42 1003.45 1002.87 1001.92 1001.22 999.71 997.54 995.76 992.97 992.39 992.26 992.43 992.40 992.65 993.15 993.79 994.56 995.20 996.00 996.72 997.46 998.12 998.59 999.21 999.82 1000.47 1001.17 1001.71
1011.13 1010.93 1010.19 1009.32 1008.35 1007.99 1008.23 1009.44 1010.79 1010.98 1010.25 1009.36 1008.48 1006.34 1004.86 1004.04 1003.53 1003.68 1002.35 1001.07 1000.95 999.42 996.89 996.06 994.99 992.85 992.50 992.28 992.23 992.40 993.00 993.68 994.34 995.06 995.73 996.42 997.18 997.84 998.44 999.09 999.70 1000.46 1001.12 1001.64
1011.27 1011.48 1011.18 1009.43 1008.38 1008.40 1008.55 1008.65 1008.89 1009.18 1008.97 1008.00 1007.28 1005.36 1003.71 1002.69 1002.58 1002.19 1001.73 1000.77 1000.32 998.36 997.03 995.80 995.10 993.62 992.83 992.56 992.60 992.49 992.80 993.59 994.41 995.02 995.86 996.58 997.26 997.87 998.50 999.10 999.70 1000.36 1001.03 1001.62
1010.65 1011.44 1011.73 1010.97 1009.53 1009.03 1008.24 1007.59 1007.11 1007.74 1007.38 1006.35 1005.22 1003.62 1002.04 1002.32 1002.52 1002.11 1000.92 1000.49 999.66 998.72 997.19 996.31 995.78 993.33 993.07 992.62 992.74 992.73 993.24 993.67 994.37 995.16 996.00 996.84 997.52 998.21 998.91 999.71 1000.14 1000.60 1001.19 1001.84
1011.00 1011.62 1011.48 1010.48 1009.27 1008.28 1007.19 1006.22 1005.58 1005.59 1005.13 1004.76 1003.47 1002.86 1002.86 1001.77 1001.24 1001.21 1001.05 1000.08 999.50 999.37 997.39 996.42 995.81 993.41 992.78 992.70 992.60 993.17 993.23 993.77 994.54 995.39 996.04 997.07 997.75 998.78 999.57 1000.11 1000.67 1000.99 1001.52 1002.06
1011.34 1011.64 1011.43 1010.02 1008.86 1007.55 1006.32 1005.35 1004.52 1004.18 1004.16 1004.12 1003.51 1002.22 1001.27 1000.70 1000.03 1000.03 999.82 999.25 998.13 997.37 995.60 993.87 992.95 992.64 992.02 991.54 991.12 992.02 993.18 993.88 994.38 995.33 996.55 997.30 998.13 998.96 999.80 1000.19 1000.81 1001.36 1001.97 1002.50
1010.79 1011.70 1011.45 1009.76 1008.37 1007.41 1005.66 1004.73 1004.69 1004.49 1004.36 1004.51 1003.84 1002.58 1001.56 1000.90 1000.68 999.91 998.91 998.32 997.02 995.87 994.62 994.02 993.57 993.07 992.47 991.50 990.28 992.01 992.87 993.75 994.58 995.56 996.51 997.53 998.42 999.19 999.90 1000.57 1001.19 1001.80 1002.38 1002.77
1010.14 1011.30 1011.76 1010.41 1008.99 1007.34 1005.19 1005.53 1005.66 1005.94 1005.52 1005.21 1004.32 1003.42 1002.58 1001.61 1000.59 999.13 998.30 997.25 997.03 995.87 995.08 994.24 993.91 993.13 991.14 993.92 992.73 991.80 992.93 993.87 994.66 995.82 996.80 997.73 998.64 999.50 1000.19 1000.90 1001.57 1002.14 1002.61 1003.18
1009.31 1010.96 1011.38 1010.76 1009.55 1007.30 1005.69 1006.34 1006.49 1006.76 1006.08 1005.83 1005.46 1004.68 1003.44 1002.34 1001.28 999.29 998.87 998.34 997.51 996.40 995.17 994.53 994.64 993.64 992.03 992.98 992.33 992.98 993.37 993.78 994.80 995.75 996.84 997.93 998.77 999.71 1000.40 1001.20 1001.80 1002.34 1002.95 1003.69
1009.71 1010.47 1010.99 1010.54 1009.77 1008.03 1006.76 1006.64 1006.98 1007.39 1006.86 1006.47 1006.59 1005.75 1004.68 1003.70 1002.51 1000.15 999.41 998.57 997.17 996.70 995.47 994.79 994.74 994.41 994.19 993.79 993.47 992.75 993.34 994.04 994.49 995.65 996.91 997.81 998.73 999.73 1000.61 1001.35 1002.06 1002.62 1003.14 1003.88
1009.77 1010.09 1010.30 1010.10 1009.43 1007.69 1006.86 1006.60 1006.89 1007.15 1007.14 1006.38 1006.22 1005.60 1004.77 1004.11 1003.16 1001.54 1000.61 998.67 997.55 997.08 995.86 994.76 994.52 994.21 994.25 994.56 992.89 993.14 993.31 993.93 994.56 995.64 996.94 997.85 998.74 999.69 1000.44 1001.38 1002.13 1002.83 1003.52 1004.28
1009.17 1009.52 1009.38 1009.13 1008.46 1007.37 1006.59 1006.68 1007.02 1005.96 1005.66 1006.15 1005.59 1004.79 1004.35 1003.67 1002.84 1002.09 1000.37 998.74 997.63 997.03 996.42 995.48 994.66 994.69 994.08 994.13 992.91 993.50 993.66 994.13 994.88 995.98 996.93 997.96 998.98 999.81 1000.64 1001.48 1002.34 1003.07 1003.80 1004.62
1008.30 1008.38 1008.59 1008.84 1006.99 1006.17 1006.71 1006.60 1006.19 1005.94 1005.43 1005.00 1005.18 1004.42 1003.97 1003.14 1002.51 1001.63 1000.62 998.60 997.19 996.65 996.32 995.66 994.91 993.78 994.04 993.57 993.18 993.59 993.76 994.33 995.32 996.43 997.39 998.22 999.19 1000.04 1000.77 1001.72 1002.65 1003.50 1004.12 1004.76
1008.19 1007.61 1007.56 1008.15 1006.57 1006.25 1006.01 1006.23 1006.33 1006.12 1005.44 1004.84 1004.73 1004.17 1003.56 1002.46 1001.48 1000.49 999.63 997.86 996.27 995.97 995.66 995.42 994.42 992.61 993.06 993.29 993.17 993.56 994.04 994.71 995.83 996.96 997.71 998.58 999.49 1000.43 1001.22 1001.97 1002.76 1003.54 1004.24 1004.83
1008.15 1007.54 1007.43 1006.85 1006.22 1006.19 1006.07 1006.33 1006.23 1005.75 1005.14 1004.53 1004.16 1003.55 1002.61 1001.59 1000.32 999.53 998.46 997.02 996.24 995.45 995.37 995.27 994.26 993.11 993.52 993.38 993.31 993.57 994.29 995.19 996.26 997.15 998.22 999.10 999.73 1000.74 1002.02 1003.04 1003.85 1003.93 1004.13 1004.23
1007.01 1007.24 1006.97 1006.36 1006.54 1006.73 1006.61 1006.18 1005.82 1005.30 1004.61 1004.00 1003.52 1002.46 1001.43 1000.58 999.55 998.78 997.48 996.16 995.59 995.42 994.97 994.91 994.24 994.24 994.33 993.47 993.53 994.19 994.53 995.37 996.40 997.75 998.71 999.15 1000.00 1001.15 1002.14 1003.01 1004.08 1004.51 1004.61 1004.43
Wind_Speed
7 5 5 10 9 9 11 13 12 14 13 14 12 20 17 14 16 16 20 20 18 19 21 13 15 15 9 8 10 12 11 10 8 4 5 3 5 3 3 5 9 9 11 13
6 6 7 10 11 10 11 14 12 13 10 16 13 22 18 15 16 16 14 19 21 16 11 12 17 11 9 9 11 11 11 10 7 5 3 4 4 4 4 5 8 8 9 12
6 10 13 13 11 11 11 12 12 17 15 15 10 20 23 21 16 17 19 11 9 14 17 15 13 10 8 10 12 11 10 11 8 9 3 2 1 2 2 2 5 6 10 12
5 8 10 8 9 8 7 15 15 16 14 10 4 19 16 17 20 15 16 14 10 10 9 14 13 10 9 10 13 14 11 11 10 10 7 9 8 6 5 4 4 5 8 9
8 13 11 6 8 12 9 13 17 15 16 15 14 11 14 8 15 13 13 17 18 12 10 11 11 11 9 10 9 8 10 11 10 12 12 9 6 5 4 3 7 6 5 7
13 15 2 3 6 9 11 7 11 5 5 13 17 13 20 13 17 17 14 19 19 18 16 12 12 9 9 9 10 10 14 15 15 13 12 12 11 8 5 4 5 4 4 4
5 5 5 4 1 4 4 6 5 5 3 10 13 14 19 14 18 15 13 13 18 15 16 19 17 14 11 9 9 9 10 12 11 12 12 12 10 10 9 7 7 9 4 3
2 8 7 3 6 7 3 1 4 5 7 13 15 11 9 11 8 18 22 20 19 17 15 14 12 20 18 17 17 11 11 12 10 12 12 10 11 7 5 8 8 7 6 6
5 5 11 15 12 11 4 5 13 11 13 7 6 8 15 14 18 19 21 23 25 24 25 24 13 7 7 9 11 13 10 10 12 11 8 8 8 8 7 9 9 7 7 6
6 14 6 11 11 10 8 5 7 4 4 5 4 14 4 13 17 19 21 22 26 25 26 18 6 5 5 5 6 9 10 13 11 10 8 8 8 8 11 12 10 9 8 7
7 2 8 8 4 12 11 3 4 2 5 2 5 2 2 5 7 12 15 19 24 26 21 19 6 4 2 4 6 8 10 11 9 9 8 9 8 12 12 11 9 9 9 8
4 4 5 15 17 8 5 6 4 2 3 3 7 8 4 5 1 6 11 15 21 22 20 17 24 4 3 3 4 10 9 11 10 9 8 8 7 11 11 10 10 9 10 8
2 3 6 7 6 3 2 5 6 7 12 14 9 8 10 5 0 7 10 11 18 17 21 18 23 13 6 5 4 6 12 10 9 10 9 8 9 11 12 10 11 12 10 9
4 6 7 9 14 13 18 18 19 13 4 14 10 15 19 5 1 5 9 13 12 15 21 17 20 11 15 8 9 10 11 13 12 13 13 12 12 12 11 7 8 9 7 8
5 4 8 14 18 19 21 22 21 18 15 15 19 18 1 5 8 2 3 13 11 20 31 21 27 14 9 9 7 12 13 15 16 14 14 12 11 11 9 8 8 8 8 7
3 4 6 20 22 21 22 22 19 18 8 14 17 14 6 8 9 7 12 20 18 23 27 27 7 6 6 10 17 16 15 15 16 17 13 12 12 10 8 8 8 8 8 8
6 3 3 8 12 15 11 9 6 9 10 10 10 10 8 11 4 8 13 19 16 20 18 11 10 7 4 6 7 15 16 17 16 16 14 13 11 10 8 8 10 8 7 7
8 5 2 6 10 3 2 16 15 10 11 13 11 14 15 12 14 14 16 11 16 21 17 7 8 8 8 7 11 15 17 18 17 16 14 13 11 10 9 9 9 7 7 7
6 5 3 3 3 13 6 6 7 6 12 4 10 15 18 19 19 15 11 17 17 22 9 4 6 3 7 9 9 17 17 18 16 15 14 13 12 10 10 10 9 6 8 8
8 4 4 2 4 5 1 6 6 6 4 8 11 14 16 16 10 12 23 25 23 21 15 8 5 6 10 15 9 17 15 15 15 14 15 13 13 12 11 10 9 4 6 8
3 3 6 7 7 7 4 8 3 1 3 14 12 15 15 13 13 21 24 26 22 19 12 9 4 7 10 18 11 13 13 12 12 16 15 14 13 12 11 9 6 6 7 9
3 2 4 2 4 7 5 3 2 6 14 8 10 16 13 16 18 18 23 24 22 22 19 6 4 7 13 14 12 9 11 15 16 17 16 15 13 11 8 11 6 7 9 9
4 3 4 6 6 1 5 5 8 9 13 12 13 12 16 17 17 19 21 22 22 21 15 4 3 5 7 8 10 13 14 15 16 14 13 13 10 9 10 9 7 7 9 8
6 8 4 9 6 8 4 3 4 10 13 16 12 15 15 18 19 20 19 18 18 16 9 6 8 4 5 4 15 15 13 16 15 14 13 11 11 9 6 6 6 7 7 7
10 10 4 8 7 8 0 6 10 14 15 14 14 16 17 18 18 17 15 15 14 14 10 2 3 4 10 5 15 12 17 16 15 14 11 10 9 10 8 7 3 3 2 4
2 2 4 3 1 4 7 12 13 14 14 15 15 18 16 15 16 15 15 12 9 11 3 2 8 12 20 13 14 14 16 16 15 13 10 9 9 8 7 7 6 13 7 2
Wind_Direction
286 9 274 257 262 263 287 292 293 306 324 322 298 290 295 299 298 272 241 240 240 242 242 261 253 243 242 212 184 172 162 172 149 150 166 182 209 203 213 214 222 203 191 191
313 248 256 329 328 329 324 315 309 309 321 305 312 295 296 294 291 295 283 252 237 233 233 242 249 239 233 215 190 168 168 171 172 155 167 152 179 205 190 212 224 198 172 173
324 308 332 325 317 317 296 294 302 291 290 268 295 286 292 291 277 284 287 272 272 245 247 244 245 246 219 188 178 179 181 179 169 184 138 149 27 335 273 258 233 196 168 166
288 268 283 296 301 345 344 336 324 325 333 298 272 281 278 293 296 297 292 292 265 255 267 254 246 232 189 207 183 184 185 181 185 181 177 183 201 200 226 196 208 166 157 153
262 288 284 303 17 357 302 319 310 305 296 304 292 276 282 288 281 282 286 285 289 271 240 246 241 221 210 175 186 188 184 192 196 200 197 191 190 191 201 201 161 143 139 144
238 265 3 57 7 322 334 324 315 310 296 269 271 268 277 266 276 280 280 286 290 292 275 237 237 245 221 203 188 187 190 200 199 196 190 184 178 183 187 164 141 130 125 130
308 338 119 98 320 276 320 1 316 313 276 261 265 254 250 265 262 283 295 294 289 277 278 287 255 239 238 222 217 205 194 206 199 198 193 193 172 184 184 171 152 145 141 144
14 327 322 155 199 236 208 190 261 280 275 283 304 281 263 287 256 17 359 328 308 292 277 268 256 240 235 230 232 198 194 205 191 191 189 177 175 175 176 160 154 151 155 154
313 288 329 318 323 319 285 225 246 283 274 274 244 273 281 4 5 1 356 342 333 322 310 270 250 225 207 209 211 201 188 189 180 170 155 160 167 162 152 142 150 153 153 166
333 310 303 317 333 302 257 250 308 291 267 263 295 299 302 359 348 352 349 339 328 318 317 273 236 266 266 244 210 200 179 170 161 150 151 159 164 156 154 152 155 160 161 164
350 251 305 322 260 289 308 351 37 152 284 293 298 275 324 23 344 343 327 332 323 307 306 318 239 215 177 330 243 178 155 141 147 149 152 151 169 161 154 156 158 158 153 146
48 274 285 284 283 294 78 127 138 274 272 221 262 266 227 155 2 277 323 332 307 298 308 331 316 247 267 291 184 148 134 139 140 143 144 154 150 143 139 144 139 135 138 131
103 318 311 293 298 33 122 253 243 231 267 269 271 268 216 177 33 329 309 319 298 313 306 312 319 318 252 239 229 142 138 131 132 121 118 121 115 115 119 119 126 134 129 130
213 190 217 255 272 284 285 281 278 232 236 262 260 282 275 192 24 285 351 317 298 310 297 308 298 280 272 233 212 159 125 130 125 126 122 121 114 112 112 118 110 112 123 123
129 258 263 265 271 277 281 291 282 279 265 275 271 277 299 206 192 175 342 287 305 295 279 275 250 230 239 220 189 142 130 136 128 122 118 120 113 121 122 120 123 118 116 116
78 275 309 282 271 271 277 279 273 286 341 335 310 311 358 335 157 207 223 265 264 256 263 272 287 259 297 204 163 145 137 132 131 130 131 127 119 117 121 111 109 107 115 117
176 218 297 276 302 310 288 285 333 341 345 341 317 299 333 328 326 249 253 248 290 305 294 317 357 319 212 171 204 138 136 130 125 124 125 123 121 118 116 108 114 118 119 112
155 163 217 278 307 257 242 40 51 5 355 334 339 345 343 334 316 303 302 311 332 321 309 19 354 1 29 264 181 123 137 132 127 130 130 129 122 122 112 120 125 117 113 110
123 130 218 264 253 273 300 21 9 5 313 352 354 340 329 328 321 291 2 345 323 314 313 39 53 33 347 300 148 135 130 131 134 135 137 131 134 127 122 128 124 118 108 108
127 165 193 327 281 268 113 279 333 320 241 30 344 319 313 318 300 289 335 323 313 314 313 343 62 74 348 286 225 127 132 137 142 140 142 135 134 126 133 131 126 121 118 116
199 229 218 249 256 269 215 258 314 19 204 334 321 301 302 294 283 299 304 301 301 305 302 312 36 46 278 242 159 138 142 141 132 131 132 132 134 137 140 125 123 119 111 111
199 227 231 227 250 269 211 319 232 293 300 288 280 291 293 289 288 295 295 292 300 305 302 321 32 31 240 243 148 144 120 124 119 130 129 127 130 138 126 127 122 121 116 120
313 158 224 210 226 162 177 207 260 291 306 308 298 303 299 291 289 284 280 285 286 291 301 325 322 193 244 244 131 124 128 117 120 122 126 127 118 129 128 123 122 123 128 134
304 297 275 301 261 264 249 296 327 301 299 301 293 293 290 286 283 282 277 275 279 295 316 355 2 292 306 253 119 129 120 121 119 120 126 121 130 121 101 116 134 140 148 149
272 290 281 259 285 328 279 321 298 300 295 296 295 289 286 283 282 290 290 266 268 283 302 325 294 250 278 168 127 120 117 124 120 121 120 131 126 107 94 71 43 118 99 171
212 205 267 288 5 246 294 310 313 301 298 297 299 298 299 301 295 289 288 288 272 274 224 301 200 231 253 148 126 121 125 129 128 126 136 134 123 119 120 120 96 47 43 115